Regional Weather Roundup
Issued by NWS Midland/Odessa, TX

Home | Current Version | Previous Version | Text Only | Print | Product List | Glossary On
Versions: 1 2 3 4 5 6 7 8 9 10 11 12 13 14 15 16 17 18 19 20 21 22 23 24 25 26 27 28 29 30 31 32 33 34 35 36 37 38 39 40 41 42 43 44 45 46 47 48 49 50
000
ASUS44 KMAF 240410
RWRMAF
MIDLAND AREA WEATHER ROUNDUP
NATIONAL WEATHER SERVICE MIDLAND TX
1000 PM CST MON JAN 23 2017

...IN SOUTHWEST TEXAS AND SOUTHEAST NEW MEXICO...

CITY           SKY/WX    TMP DP  RH WIND       PRES   REMARKS
ALPINE         CLEAR     60  27  28 S6        29.88F
ANDREWS        FAIR      52  30  42 SW5       29.76F
ARTESIA        CLEAR     48  27  43 SW12      29.72F
BIG SPRING     CLEAR     58  36  43 SE15      29.77S
CARLSBAD       CLEAR     50  28  42 SW14      29.72F
DRYDEN           N/A     57  33  40 NE3       29.78F
FORT STOCKTON  CLEAR     60  34  37 S13       29.77F
GUAD PASS      CLEAR     53  23  31 SW15      29.83F
HOBBS          NOT AVBL
MARFA          CLEAR     38  31  76 CALM      29.88
MIDLAND AIRPK  CLEAR     61  34  36 S10       29.76F
MIDLAND INTL   CLEAR     54  35  48 S10       29.76F
ODESSA         CLEAR     60  32  34 S14       29.77F
PECOS          CLEAR     52  33  48 SW5       29.75F
PRESIDIO       FAIR      72  24  16 S8G18     29.77S
SEMINOLE       CLEAR     53  27  37 SW8       29.76F
SNYDER         CLEAR     58  32  38 S12       29.75S
WINK           CLEAR     52  32  46 S9        29.74F
$$
...OTHER STATIONS IN TEXAS...

CITY           SKY/WX    TMP DP  RH WIND       PRES   REMARKS
ABILENE        CLEAR     54  39  57 S8        29.77R
AMARILLO       CLEAR     49  32  52 SW12      29.67S
AUSTIN         CLEAR     59  34  39 SW9       29.84S
BROWNSVILLE    CLEAR     59  54  83 S9        29.94R
CORPUS CHRISTI CLEAR     60  50  69 S14       29.88S
DALLAS FTW     PTCLDY    54  39  57 S7        29.76S
DEL RIO        CLEAR     63  34  33 E10       29.77S
EL PASO        CLEAR     57  28  33 SW7       29.76F
HOUSTON INT    CLEAR     59  42  53 S6        29.89R
LUBBOCK        PTCLDY    55  26  32 SW10      29.72F
SAN ANGELO     CLEAR     58  37  45 S12       29.77F
SAN ANTONIO    CLEAR     54  39  57 NW3       29.85S
WACO           CLEAR     58  41  53 S15       29.80F
WICHITA FALLS  NOT AVBL
$$
...OTHER LOCATIONS IN NEW MEXICO...

CITY           SKY/WX    TMP DP  RH WIND       PRES   REMARKS
ALAMAGORDO     CLEAR     55  28  35 S20G25    29.75F
ALBUQUERQUE    CLOUDY    44  27  51 SE7       29.63F
CANNON AFB     CLEAR     41  27  56 SW9       29.69F WCI  35
CLOVIS         CLEAR     39  27  60 S9        29.70F WCI  33
HOLLOMAN AFB   CLEAR     50  31  47 S15       29.76F
ROSWELL        CLEAR     52  27  38 SW13      29.68F
RUIDOSO        CLEAR     46  25  42 SW22G38   29.76F WCI  38
SANTA FE       CLOUDY    44  27  51 SW13G20   29.62F WCI  38
TRUTH OR CONSE PTCLDY    52  29  41 SW15      29.68F
TUCUMCARI      CLEAR     47  28  47 SW13      29.62F
$$




USA.gov is the U.S. government's official web portal to all federal, state and local government web resources and services.